Regional Weather Roundup
Issued by NWS

Home | Current Version | Previous Version | Graphics & Text | Print | Product List | Glossary On
Versions: 1 2 3 4 5 6 7 8 9 10 11 12 13 14 15 16 17 18 19 20 21 22 23 24 25 26 27 28 29 30 31 32 33 34 35 36 37 38 39 40 41 42 43 44 45 46 47 48 49 50
000
ASUS43 KOAX 281902
RWRNE

WEATHER ROUNDUP FOR NEBRASKA
NATIONAL WEATHER SERVICE OMAHA NE
200 PM CDT TUE JUL 28 2015

NOTES: SATELLITE DATA IS BEING USED TO AUGMENT CLOUD COVER ABOVE
       12000 FEET.
       "FAIR" INDICATES FEW OR NO CLOUDS BELOW 12,000 FEET WITH NO
       SIGNIFICANT WEATHER AND/OR OBSTRUCTIONS TO VISIBILITY.

  * THESE STATIONS DO NOT REPORT WEATHER SUCH AS RAIN...SNOW OR FOG.

NEZ001>004-019>022-054>056-282000-
NEBRASKA PANHANDLE

CITY           SKY/WX    TMP DP  RH WIND       PRES   REMARKS
SCOTTSBLUFF    SUNNY     77  33  20 W13       30.12S
ALLIANCE       SUNNY     78  36  21 NW16G26   30.10R
CHADRON        SUNNY     77  39  25 NW14G22   30.07F
KIMBALL        SUNNY     76  31  18 NW13G26   30.14S
SIDNEY         SUNNY     80  32  17 N16G24    30.13S
$$

NEZ057>060-069>072-079>082-282000-
SOUTHWEST NEBRASKA

CITY           SKY/WX    TMP DP  RH WIND       PRES   REMARKS
NORTH PLATTE   SUNNY     82  44  26 N15       30.02S
IMPERIAL       SUNNY     82  41  23 N14G23    30.07S
MCCOOK         SUNNY     85  54  34 NE16      30.01S
$$

NEZ005>010-023>029-035>040-094-282000-
NORTH CENTRAL NEBRASKA

CITY           SKY/WX    TMP DP  RH WIND       PRES   REMARKS
VALENTINE      SUNNY     78  44  29 MISG      30.02S
AINSWORTH      SUNNY     79  46  31 NW10G17   30.03R
BROKEN BOW     SUNNY     81  52  36 N15G23    30.01S
O`NEILL        SUNNY     77  56  48 NW16      29.99S
ORD            MOSUNNY   79  52  38 N14       29.96S
$$

NEZ041-046>049-061>064-073>077-083>087-282000-
SOUTH CENTRAL NEBRASKA

CITY           SKY/WX    TMP DP  RH WIND       PRES   REMARKS
GRAND ISLAND   CLOUDY    82  65  56 N15       29.95R
AURORA         CLOUDY    77  71  82 N18G24    29.93R
HASTINGS       MOSUNNY   81  69  67 N21       29.94R
KEARNEY *      MOSUNNY   82  54  36 N22G28    29.97S
$$

NEZ011>018-030>034-042>045-282000-
NORTHEAST NEBRASKA

CITY           SKY/WX    TMP DP  RH WIND       PRES   REMARKS
NORFOLK        CLOUDY    78  66  66 NW16      29.91S
BLAIR          MOSUNNY   84  73  71 SE8       29.86S HX  90
COLUMBUS *     CLOUDY    72  64  78 N10G20    29.92R
FREMONT        CLOUDY    83  74  72 CALM      29.88R HX  90
TEKAMAH        LGT RAIN  79  76  90 VRB3      29.87R
$$

NEZ050>053-065>068-078-088>093-282000-
SOUTHEAST NEBRASKA

CITY           SKY/WX    TMP DP  RH WIND       PRES   REMARKS
LINCOLN        MOSUNNY   88  73  61 S7        29.86R HX  95
OMAHA EPPLEY   PTSUNNY   89  74  60 S13       29.85S HX  98
FALLS CITY     SUNNY     91  76  61 S15       29.84F HX 103
$$

NEZ044-045-051>053-067-282000-
OMAHA AREA

CITY           SKY/WX    TMP DP  RH WIND       PRES   REMARKS
OMAHA EPPLEY   PTSUNNY   89  74  60 S13       29.85S HX  98
BLAIR          MOSUNNY   84  73  71 SE8       29.86S HX  90
FREMONT        CLOUDY    83  74  72 CALM      29.88R HX  90
OFFUTT AFB     PTSUNNY   89  75  64 SE10      29.84S HX  99
$$



USA.gov is the U.S. government's official web portal to all federal, state and local government web resources and services.